Miscellaneous Local Product
Issued by NWS North Platte, NE

Home | Current Version | Previous Version | Text Only | Print | Product List | Glossary On
Versions: 1 2 3 4 5 6 7 8 9 10 11 12 13 14 15 16 17 18 19 20 21 22 23 24 25 26 27 28 29 30 31 32 33 34 35 36 37 38 39 40 41 42 43 44 45 46 47 48 49 50
000
AXUS43 KLBF 280910
MISLBF


WESTERN AND NORTH CENTRAL NEBRASKA HOURLY WEATHER ROUNDUP
NATIONAL WEATHER SERVICE NORTH PLATTE NE
400 AM CDT SAT MAY 28 2016

NOTE: "FAIR" INDICATES FEW OR NO CLOUDS BELOW 12,000 FEET WITH NO
SIGNIFICANT WEATHER AND/OR OBSTRUCTIONS TO VISIBILITY.

NOTE: STATIONS NOT REPORTING VARIABLES SUCH AS SKY/WEATHER OR
PRESSURE ARE PROVIDED BY RAWS AND APRS NETWORKS AND ARE NOT UNDER
NATIONAL WEATHER SERVICE QUALITY CONTROL.

...OBSERVATIONS IN AND NEAR THE EASTERN PANHANDLE OF NEBRASKA...

CITY           SKY/WX    TMP DP  RH WIND       PRES   REMARKS
PINE RIDGE     MOCLDY    38  36  92 E3        29.88R FOG
CHADRON        CLEAR     41  39  93 SW7       29.88R
ALLIANCE       CLEAR     41  40  96 NW5       29.88S
SIDNEY         CLEAR     42  40  92 NW7       29.91S
CRESCENT LAKE    N/A     47  46  96 NW6         N/A
BIG SPRINGS      N/A     51  48  91 W6          N/A
$$

...OBSERVATIONS IN NORTHERN NEBRASKA AND FAR SOUTHERN SOUTH DAKOTA...

CITY           SKY/WX    TMP DP  RH WIND       PRES   REMARKS
WINNER         CLOUDY    58  55  90 CALM      29.79F
VALENTINE      PTCLDY    52  49  89 W7        29.82S
THEDFORD       CLOUDY    53  50  90 W3        29.84R
AINSWORTH      MOCLDY    55  52  89 NW5       29.81S
O`NEILL        RAIN      58  56  94 W6        29.78S
ORD            LGT RAIN  56  54  93 S6        29.76F
BROKEN BOW     LGT RAIN  56  54  93 W7        29.80S
BUTTE            N/A     58  56  92 N6          N/A
CHAMBERS         N/A     57  55  95 W5          N/A
EWING            N/A     58  57  96 W8          N/A
$$

...OBSERVATIONS IN SOUTHWEST NEBRASKA AND FAR NORTHEAST COLORADO...

CITY           SKY/WX    TMP DP  RH WIND       PRES   REMARKS
WRAY           FAIR      46  46 100 NW7       29.90R
HOLYOKE        PTSUNNY   52  46  82 NW7       29.90R
IMPERIAL       CLEAR     50  46  86 NW9       29.86S
OGALLALA       CLEAR     49  46  90 NW8       29.86S
NORTH PLATTE   CLOUDY    54  52  93 CALM      29.84R
MCCOOK         CLOUDY    55  53  93 N5        29.82S
LEXINGTON      CLOUDY    55  53  93 NW5       29.81S
PAXTON           N/A     53  49  88 NW3         N/A
STAPLETON        N/A     53  50  91 CALM        N/A
GOTHENBURG       N/A     55  51  86 N5          N/A
CALLAWAY         N/A     54  53  96 NW9         N/A
$$

...OBSERVATIONS IN CENTRAL LINCOLN COUNTY AREA...

CITY           SKY/WX    TMP DP  RH WIND       PRES   REMARKS
N.P. AIRPORT   CLOUDY    54  52  93 CALM      29.84R
N.P. DOWNTOWN    N/A     55  52  90 CALM        N/A
N.P. SOUTHEAST   N/A     54  51  90 CALM        N/A
N.P. HILLCREST   N/A     54  52  92 E3          N/A
$$

...SOME OBSERVATIONS FROM AROUND THE REGION...

CITY           SKY/WX    TMP DP  RH WIND       PRES   REMARKS
DENVER         PTCLDY    45  39  79 SW13      29.96R
LARAMIE        CLOUDY    34  31  88 SW5       30.01R WCI  30
CHEYENNE       PTCLDY    42  35  76 NW7       29.97R
SCOTTSBLUFF    PTCLDY    40  38  93 NE5       29.91R
RAPID CITY     CLEAR     45  43  93 NW8       29.87R
BISMARCK       CLOUDY    51  50  96 NE3       29.85R
PIERRE         CLOUDY    58  53  84 NW8       29.78F
SIOUX FALLS    LGT RAIN  62  59  90 N5        29.71F
OMAHA          CLOUDY    62  59  90 SE8       29.71R
GRAND ISLAND   PTCLDY    57  55  93 W7        29.77F
KANSAS CITY    MOCLDY    58  57  97 SE5       29.76R
WICHITA        MOCLDY    60  55  83 SW8       29.72R
OKLAHOMA CITY  MOCLDY    62  61  96 S7        29.84R
DALLAS         CLOUDY    68  64  87 S8        29.82S
AMARILLO       CLEAR     49  41  74 N8        29.93S
DODGE CITY     CLEAR     52  49  89 W10       29.84R
HAYS           CLOUDY    55  48  76 W3        29.79R
GOODLAND       CLEAR     47  45  93 W10       29.88S
$$




USA.gov is the U.S. government's official web portal to all federal, state and local government web resources and services.